• en Suisse
  • Liste des pays
  • À 7 jours
  • Température de l'eau
  • Carte satellitaire
  • Carte météo
  • Widgets météo
  • user-avatar
    Se connecter

    Météo par heure à Mbandaka

    Ce jour, 21 Juin, Jeudi

    Heure Température Précipitation Vent Pression Humidité
    00:00 +23°C° 0 mm 0 m/s 733 mmHg 69%
    01:00 +22°C° 0 mm 0 m/s 734 mmHg 73%
    02:00 +22°C° 0 mm 0 m/s 734 mmHg 74%
    03:00 +22°C° 0 mm 0 m/s 734 mmHg 75%
    04:00 +22°C° 0 mm 0 m/s 734 mmHg 75%
    05:00 +22°C° 0 mm 0 m/s 734 mmHg 74%
    06:00 +23°C° 0 mm 0 m/s 734 mmHg 73%
    07:00 +23°C° 0 mm 0 m/s 734 mmHg 71%
    08:00 +26°C° 0 mm 0 m/s 734 mmHg 62%
    09:00 +31°C° 0 mm 1 m/s 734 mmHg 53%
    10:00 +34°C° 0 mm 1 m/s 735 mmHg 43%
    11:00 +34°C° 0 mm 1 m/s 734 mmHg 41%
    12:00 +33°C° 0 mm 0 m/s 734 mmHg 39%
    13:00 +34°C° 0 mm 0 m/s 733 mmHg 37%
    14:00 +33°C° 0 mm 0 m/s 733 mmHg 38%
    15:00 +33°C° 0 mm 0 m/s 732 mmHg 39%
    16:00 +32°C° 0 mm 0 m/s 732 mmHg 39%
    17:00 +30°C° 0 mm 0 m/s 732 mmHg 45%
    18:00 +28°C° 0 mm 0 m/s 732 mmHg 51%
    19:00 +26°C° 0 mm 0 m/s 732 mmHg 57%
    20:00 +26°C° 0 mm 0 m/s 733 mmHg 58%
    21:00 +25°C° 0 mm 0 m/s 733 mmHg 60%
    22:00 +25°C° 0 mm 0 m/s 733 mmHg 61%
    23:00 +24°C° 0 mm 0 m/s 733 mmHg 63%

    Demain, 22 Juin, Vendredi

    Heure Température Précipitation Vent Pression Humidité
    00:00 +24°C° 0 mm 0 m/s 733 mmHg 65%
    01:00 +24°C° 0 mm 0 m/s 733 mmHg 67%
    02:00 +23°C° 0 mm 0 m/s 733 mmHg 69%
    03:00 +23°C° 0 mm 0 m/s 733 mmHg 70%
    04:00 +23°C° 0 mm 0 m/s 733 mmHg 71%
    05:00 +23°C° 0 mm 0 m/s 733 mmHg 70%
    06:00 +24°C° 0 mm 0 m/s 734 mmHg 70%
    07:00 +26°C° 0 mm 1 m/s 734 mmHg 69%
    08:00 +29°C° 0 mm 1 m/s 734 mmHg 61%
    09:00 +31°C° 0 mm 1 m/s 735 mmHg 53%
    10:00 +34°C° 0 mm 1 m/s 735 mmHg 44%
    11:00 +34°C° 0 mm 1 m/s 735 mmHg 43%
    12:00 +34°C° 0 mm 1 m/s 734 mmHg 42%
    13:00 +34°C° 0 mm 1 m/s 733 mmHg 40%
    14:00 +34°C° 0 mm 1 m/s 733 mmHg 44%
    15:00 +33°C° 0 mm 1 m/s 732 mmHg 48%
    16:00 +30°C° 0 mm 0 m/s 732 mmHg 52%
    17:00 +29°C° 0 mm 0 m/s 732 mmHg 56%
    18:00 +27°C° 0 mm 0 m/s 732 mmHg 59%
    19:00 +28°C° 0 mm 1 m/s 732 mmHg 63%
    20:00 +27°C° 0 mm 1 m/s 733 mmHg 65%
    21:00 +27°C° 0 mm 1 m/s 733 mmHg 67%
    22:00 +26°C° 0 mm 1 m/s 733 mmHg 69%
    23:00 +25°C° 0,1 mm 1 m/s 733 mmHg 70%

    Après-demain, 23 Juin, Samedi

    Heure Température Précipitation Vent Pression Humidité
    00:00 +25°C° 0,1 mm 1 m/s 733 mmHg 71%
    01:00 +22°C° 0,1 mm 0 m/s 733 mmHg 73%
    02:00 +22°C° 0,2 mm 0 m/s 733 mmHg 75%
    03:00 +22°C° 0,2 mm 0 m/s 733 mmHg 77%
    04:00 +22°C° 0,2 mm 0 m/s 732 mmHg 80%
    05:00 +22°C° 0 mm 0 m/s 733 mmHg 79%
    06:00 +22°C° 0 mm 0 m/s 733 mmHg 79%
    07:00 +23°C° 0 mm 0 m/s 734 mmHg 79%
    08:00 +25°C° 0 mm 0 m/s 734 mmHg 69%
    09:00 +27°C° 0 mm 0 m/s 734 mmHg 60%
    10:00 +30°C° 0 mm 0 m/s 735 mmHg 50%
    11:00 +32°C° 0 mm 0 m/s 734 mmHg 44%
    12:00 +34°C° 0 mm 0 m/s 733 mmHg 38%
    13:00 +36°C° 0 mm 0 m/s 733 mmHg 32%
    14:00 +34°C° 0 mm 0 m/s 732 mmHg 34%
    15:00 +35°C° 0 mm 1 m/s 731 mmHg 35%
    16:00 +34°C° 0 mm 1 m/s 730 mmHg 37%
    17:00 +32°C° 0 mm 1 m/s 731 mmHg 44%
    18:00 +30°C° 0 mm 1 m/s 731 mmHg 52%
    19:00 +26°C° 0 mm 0 m/s 731 mmHg 60%
    20:00 +27°C° 0 mm 1 m/s 732 mmHg 65%
    21:00 +27°C° 0 mm 1 m/s 732 mmHg 70%
    22:00 +26°C° 0 mm 1 m/s 732 mmHg 75%
    23:00 +23°C° 0 mm 0 m/s 732 mmHg 78%

    24 Juin, Dimanche

    Heure Température Précipitation Vent Pression Humidité
    00:00 +23°C° 0 mm 0 m/s 732 mmHg 81%
    01:00 +22°C° 0 mm 0 m/s 732 mmHg 84%
    02:00 +22°C° 0,1 mm 0 m/s 731 mmHg 86%
    03:00 +22°C° 0,1 mm 0 m/s 731 mmHg 88%
    04:00 +21°C° 0,1 mm 0 m/s 731 mmHg 90%
    05:00 +22°C° 0,1 mm 0 m/s 732 mmHg 89%
    06:00 +24°C° 0,1 mm 1 m/s 732 mmHg 88%
    07:00 +25°C° 0,1 mm 1 m/s 733 mmHg 87%
    08:00 +27°C° 0 mm 1 m/s 733 mmHg 75%
    09:00 +30°C° 0 mm 1 m/s 733 mmHg 64%
    10:00 +33°C° 0 mm 1 m/s 734 mmHg 52%
    11:00 +34°C° 0 mm 1 m/s 733 mmHg 48%
    12:00 +35°C° 0 mm 1 m/s 732 mmHg 45%
    13:00 +36°C° 0 mm 1 m/s 731 mmHg 41%
    14:00 +35°C° 0 mm 1 m/s 731 mmHg 42%
    15:00 +33°C° 0 mm 0 m/s 730 mmHg 43%
    16:00 +32°C° 0 mm 0 m/s 730 mmHg 44%
    17:00 +31°C° 0 mm 0 m/s 730 mmHg 50%
    18:00 +29°C° 0 mm 0 m/s 731 mmHg 56%
    19:00 +27°C° 0 mm 0 m/s 731 mmHg 62%
    20:00 +26°C° 0,2 mm 0 m/s 731 mmHg 67%
    21:00 +25°C° 0,2 mm 0 m/s 731 mmHg 72%
    22:00 +24°C° 0,2 mm 0 m/s 731 mmHg 77%
    23:00 +26°C° 0,2 mm 1 m/s 731 mmHg 80%

    25 Juin, Lundi

    Heure Température Précipitation Vent Pression Humidité
    00:00 +25°C° 0,2 mm 1 m/s 731 mmHg 82%
    01:00 +25°C° 0,2 mm 1 m/s 731 mmHg 85%
    02:00 +24°C° 0,7 mm 1 m/s 731 mmHg 88%
    03:00 +24°C° 0,7 mm 1 m/s 731 mmHg 91%
    04:00 +23°C° 0,7 mm 1 m/s 731 mmHg 94%
    05:00 +24°C° 0,9 mm 1 m/s 731 mmHg 94%
    06:00 +24°C° 0,9 mm 1 m/s 732 mmHg 94%
    07:00 +22°C° 0,9 mm 0 m/s 733 mmHg 94%
    08:00 +26°C° 0,5 mm 1 m/s 733 mmHg 85%
    09:00 +28°C° 0,5 mm 1 m/s 733 mmHg 76%
    10:00 +30°C° 0,5 mm 1 m/s 733 mmHg 67%
    11:00 +31°C° 1,2 mm 1 m/s 732 mmHg 67%
    12:00 +31°C° 1,2 mm 1 m/s 732 mmHg 66%
    13:00 +31°C° 1,2 mm 1 m/s 731 mmHg 66%
    14:00 +29°C° 0,2 mm 0 m/s 730 mmHg 63%
    15:00 +29°C° 0,2 mm 0 m/s 730 mmHg 61%
    16:00 +29°C° 0,2 mm 0 m/s 730 mmHg 59%
    17:00 +28°C° 0 mm 0 m/s 730 mmHg 65%
    18:00 +26°C° 0 mm 0 m/s 731 mmHg 70%
    19:00 +25°C° 0 mm 0 m/s 731 mmHg 76%
    20:00 +24°C° 0,3 mm 0 m/s 731 mmHg 79%
    21:00 +24°C° 0,3 mm 0 m/s 732 mmHg 82%
    22:00 +23°C° 0,3 mm 0 m/s 732 mmHg 86%
    23:00 +23°C° 1 mm 0 m/s 732 mmHg 89%

    26 Juin, Mardi

    Heure Température Précipitation Vent Pression Humidité
    00:00 +22°C° 1 mm 0 m/s 731 mmHg 92%
    01:00 +24°C° 1 mm 1 m/s 731 mmHg 95%
    02:00 +24°C° 0 mm 1 m/s 731 mmHg 96%
    03:00 +24°C° 0 mm 1 m/s 731 mmHg 97%
    04:00 +23°C° 0 mm 1 m/s 731 mmHg 97%
    05:00 +24°C° 0 mm 1 m/s 732 mmHg 96%
    06:00 +22°C° 0 mm 0 m/s 732 mmHg 94%
    07:00 +23°C° 0 mm 0 m/s 732 mmHg 93%
    08:00 +27°C° 0 mm 1 m/s 732 mmHg 80%
    09:00 +30°C° 0 mm 1 m/s 732 mmHg 68%
    10:00 +32°C° 0 mm 1 m/s 733 mmHg 55%
    11:00 +34°C° 0 mm 1 m/s 732 mmHg 49%
    12:00 +35°C° 0 mm 1 m/s 731 mmHg 44%
    13:00 +37°C° 0 mm 1 m/s 730 mmHg 38%
    14:00 +36°C° 0 mm 1 m/s 730 mmHg 42%
    15:00 +33°C° 0 mm 0 m/s 729 mmHg 46%
    16:00 +31°C° 0 mm 0 m/s 729 mmHg 50%
    17:00 +30°C° 0 mm 0 m/s 729 mmHg 54%
    18:00 +29°C° 0 mm 0 m/s 730 mmHg 58%
    19:00 +27°C° 0 mm 0 m/s 731 mmHg 62%
    20:00 +26°C° 0,6 mm 0 m/s 731 mmHg 69%
    21:00 +25°C° 0,6 mm 0 m/s 731 mmHg 75%
    22:00 +26°C° 0,6 mm 1 m/s 731 mmHg 82%
    23:00 +25°C° 0,6 mm 1 m/s 731 mmHg 85%
    Voir plus